Wind_Speed
35 36 36 38 39 39 40 42 43 43 44 44 45 45 45 45 45 45 46 46 46 46 47 47 47 48 48 47 47 47 47 48 49 48 49 49 49 49 49 50 50 50 50
35 36 37 38 40 41 42 43 43 44 44 44 45 44 44 44 45 45 45 46 46 46 46 46 46 47 48 48 48 48 48 48 49 48 48 47 47 47 48 48 48 49 49
36 37 38 39 41 42 42 43 43 44 44 44 45 45 45 44 44 43 44 45 45 45 45 46 46 47 47 48 47 47 47 47 46 46 45 46 46 45 46 46 46 47 48
35 37 37 38 40 42 42 43 43 43 43 43 43 44 44 44 44 44 44 44 44 44 45 45 46 46 46 46 46 46 45 45 44 44 44 44 44 44 45 45 46 46 47
34 35 36 38 38 39 39 40 41 41 41 42 42 42 43 43 43 43 43 43 43 43 44 44 45 44 45 44 44 44 43 43 43 43 43 43 43 43 44 44 45 46 46
33 33 34 35 36 37 37 38 38 38 39 40 40 41 41 41 41 41 41 41 41 41 42 42 43 42 42 43 43 43 43 43 42 42 41 41 42 42 42 42 43 43 43
32 32 33 34 34 34 35 35 35 36 36 36 36 37 37 38 39 39 39 39 40 40 41 41 41 41 41 41 41 41 41 41 41 41 40 40 40 40 41 41 42 41 41
32 33 34 34 34 35 35 35 34 33 33 33 33 34 34 35 35 36 37 38 39 39 39 40 39 39 39 39 39 39 39 39 39 39 39 38 39 39 39 40 40 40 39
32 33 33 33 33 33 33 32 31 31 31 31 32 32 32 32 32 33 34 35 35 35 35 36 36 36 37 37 37 37 37 37 37 37 37 37 37 38 38 38 38 38 37
31 32 32 32 32 32 31 31 31 31 31 31 30 30 29 29 30 31 32 32 32 32 32 33 33 34 34 34 34 35 35 36 36 36 36 36 36 36 36 35 36 35 34
31 31 31 31 31 31 31 30 30 30 30 29 28 28 28 28 29 29 30 30 30 30 31 31 31 31 31 31 32 33 33 34 35 35 34 34 33 33 33 33 32 32 32
30 30 30 29 29 29 29 29 29 28 28 27 26 26 27 27 28 28 28 29 29 29 30 30 30 30 30 30 31 32 32 33 33 32 32 32 31 31 31 31 30 30 30
28 28 28 27 27 28 29 29 28 28 27 27 27 26 27 27 27 28 28 28 28 29 29 29 29 28 29 30 30 30 30 30 30 30 30 30 29 29 29 28 28 28 29
27 27 27 27 28 29 29 28 28 28 27 26 26 26 26 27 27 28 28 27 27 28 28 28 28 28 28 28 28 29 28 28 28 27 27 27 28 27 27 27 27 27 27
27 27 27 27 28 28 27 28 28 27 27 26 26 26 27 27 27 27 27 26 26 26 26 26 26 27 27 26 26 26 26 26 26 25 25 25 25 25 25 26 26 26 26
28 28 27 27 26 26 26 26 26 26 26 27 26 26 26 25 25 25 25 24 24 24 24 24 24 24 24 24 24 24 24 24 24 23 23 23 23 24 24 25 26 26 25
27 27 26 26 25 25 25 25 25 24 25 25 25 25 24 24 24 23 22 22 22 22 22 22 22 22 22 22 22 22 22 22 22 22 22 22 22 22 22 23 23 23 22
26 25 25 24 23 23 23 23 23 22 22 22 22 23 23 23 22 22 21 21 21 21 22 21 21 20 20 20 20 20 20 20 20 20 20 21 21 21 21 21 21 20 19
24 23 23 22 21 21 21 21 21 21 21 20 21 22 22 22 21 21 20 20 20 20 20 19 19 19 18 18 18 18 18 18 18 19 19 20 20 19 19 18 17 16 15
23 22 22 21 21 20 20 21 21 20 19 19 20 21 20 20 20 20 20 19 19 19 18 18 17 17 16 16 17 17 17 17 17 17 18 18 17 16 16 14 14 13 12
22 22 21 20 20 20 19 19 19 19 19 19 19 19 19 19 18 18 18 18 18 17 16 16 15 15 15 15 15 15 15 15 16 15 15 15 14 13 12 12 11 11 10
21 20 20 19 19 18 18 18 18 18 17 17 18 18 18 17 17 16 16 16 16 15 14 14 14 14 14 13 13 14 14 14 14 13 13 12 12 12 11 11 10 9 9
20 19 19 18 18 17 17 17 17 17 16 16 16 16 16 16 16 16 15 15 15 14 13 13 12 12 12 12 13 13 13 13 12 12 12 11 11 10 10 9 9 9 8
19 18 17 17 16 16 16 16 16 15 15 16 16 15 15 15 14 14 14 13 13 13 12 12 12 12 12 12 12 12 12 12 11 10 10 9 9 8 8 8 7 7 8
17 16 16 15 15 15 15 15 14 14 14 14 14 14 13 13 13 12 12 12 12 12 11 11 11 11 11 11 11 11 11 10 9 9 8 8 8 7 7 7 6 7 7
15 15 14 14 14 14 14 13 13 13 13 12 12 12 12 12 11 11 11 11 10 10 10 10 10 10 10 10 10 9 9 8 8 7 7 7 7 7 6 6 6 6 6
Wind_Direction
268 268 270 270 268 270 271 272 272 272 272 271 271 271 271 271 271 272 271 271 271 271 271 270 270 270 270 270 270 271 272 273 273 273 273 274 274 274 274 275 275 277 277
269 270 271 271 271 271 273 274 274 273 272 272 271 271 271 271 271 272 272 271 271 271 271 271 271 270 270 270 270 271 272 274 274 274 274 275 275 275 275 275 275 276 277
270 271 272 272 272 273 275 275 275 275 274 273 272 271 270 270 270 271 272 272 273 273 272 271 272 271 270 270 270 271 272 273 274 274 275 275 275 275 275 275 276 276 277
273 275 274 276 276 275 275 275 275 275 275 274 272 271 270 270 271 271 271 272 272 272 272 272 272 272 271 270 271 271 272 273 274 275 276 276 276 276 275 275 276 277 278
277 277 277 279 278 277 276 276 277 276 275 274 273 272 272 271 271 271 271 271 272 272 272 272 273 273 272 271 271 271 272 272 274 276 277 277 277 277 276 276 276 277 277
279 279 280 281 280 278 278 278 278 277 276 275 274 274 273 272 272 272 272 271 272 272 273 273 273 273 272 271 271 272 271 272 274 275 276 277 277 277 278 278 277 276 277
281 281 281 281 282 281 280 280 280 279 278 278 276 274 274 274 273 273 272 272 272 273 274 273 273 272 272 271 271 271 271 272 273 275 276 277 278 278 278 278 278 277 277
283 283 282 282 283 283 282 282 282 282 280 279 277 276 275 274 274 274 273 273 274 274 275 274 273 272 272 272 271 271 271 271 273 274 276 277 277 277 278 278 278 278 279
283 284 284 284 283 283 283 283 282 282 282 281 280 278 277 276 276 276 275 275 276 277 277 275 274 273 272 271 270 269 269 270 271 274 276 277 277 277 278 278 278 279 278
282 284 285 285 284 284 282 281 282 283 283 283 281 279 277 277 276 275 275 276 277 278 277 277 276 275 273 271 271 270 271 271 272 274 276 276 277 278 278 279 279 278 278
282 283 285 285 284 283 282 282 283 283 283 282 280 279 277 277 276 276 276 277 278 277 277 277 276 275 273 271 271 272 272 273 274 274 275 276 278 278 278 280 280 279 280
284 285 285 285 284 284 284 284 284 283 283 282 280 278 278 277 277 277 278 278 278 278 278 278 276 275 273 272 272 273 274 274 274 274 273 275 276 277 278 279 280 281 281
285 285 284 284 284 284 285 284 283 283 283 282 280 278 278 278 278 278 278 277 277 278 278 277 276 275 274 273 273 274 274 273 272 273 274 275 277 277 277 278 280 282 283
285 285 285 285 285 286 285 284 283 283 282 281 280 279 278 278 279 279 278 277 277 278 279 278 276 274 273 273 274 274 274 273 273 274 275 275 276 276 276 278 281 283 283
286 287 287 286 287 286 285 283 282 282 281 281 280 280 280 280 280 280 279 278 278 278 278 278 277 275 274 273 275 275 274 274 273 273 275 276 278 278 279 280 281 283 285
286 287 287 287 286 286 286 284 282 281 281 280 279 280 280 281 281 281 280 279 278 278 279 279 277 275 274 273 275 275 275 275 274 274 276 277 279 280 281 282 283 284 284
286 287 288 288 286 286 284 282 282 281 281 279 278 280 281 281 281 281 280 279 279 279 280 280 279 278 275 274 275 276 275 276 275 274 276 278 280 281 282 285 286 285 283
286 287 288 288 286 285 283 283 283 283 281 280 281 281 281 281 281 280 279 279 281 282 282 283 282 280 278 276 276 276 276 276 276 275 276 278 280 282 284 285 286 285 284
287 288 288 288 286 284 283 284 285 285 284 281 282 282 281 280 281 280 279 280 281 283 284 284 283 281 278 276 276 276 276 277 278 278 278 280 282 283 284 284 285 285 285
287 288 288 287 286 283 283 285 286 287 286 284 285 283 281 280 280 280 280 280 282 283 284 284 283 280 278 276 276 276 276 278 280 281 281 281 281 282 283 283 284 284 284
286 286 286 286 284 283 283 285 287 287 286 287 287 284 282 280 279 280 280 282 283 282 281 282 281 278 278 278 278 278 279 280 281 281 281 279 277 278 280 280 280 279 279
284 285 285 284 284 284 286 287 287 287 286 288 289 287 284 281 279 280 281 283 283 280 278 280 279 277 279 279 279 280 281 282 282 281 277 275 273 274 276 276 274 273 274
281 282 283 284 283 284 286 287 287 287 287 289 291 289 286 281 280 280 281 282 281 277 275 276 278 278 280 279 278 280 283 283 282 279 276 273 270 268 270 270 270 267 269
279 279 280 282 283 286 287 288 288 288 288 290 291 289 286 282 281 281 280 279 277 275 273 274 275 276 278 279 279 281 283 284 282 281 276 271 269 267 267 267 267 264 267
276 276 276 278 283 287 288 288 288 288 289 290 290 289 286 284 281 280 280 280 278 274 272 274 275 276 278 281 281 282 282 281 280 277 271 267 264 264 264 263 265 267 270
272 272 273 277 282 286 288 287 286 286 287 289 290 289 285 284 284 283 284 283 280 275 273 275 277 276 277 280 279 280 278 276 274 270 266 262 261 260 262 262 266 267 265
Height
5621 5621 5622 5623 5623 5623 5623 5623 5622 5622 5621 5621 5621 5620 5620 5621 5621 5621 5621 5621 5621 5621 5621 5621 5621 5621 5621 5621 5621 5621 5621 5621 5621 5622 5621 5621 5620 5619 5618 5618 5617 5616 5615
5611 5612 5612 5612 5612 5612 5612 5612 5611 5610 5609 5609 5609 5608 5608 5608 5608 5608 5608 5608 5608 5608 5608 5608 5608 5608 5608 5608 5608 5608 5608 5608 5608 5608 5608 5608 5607 5606 5605 5605 5604 5603 5602
5601 5602 5602 5602 5601 5601 5601 5600 5599 5598 5597 5597 5596 5596 5596 5596 5596 5596 5596 5596 5595 5595 5595 5595 5595 5595 5595 5595 5595 5595 5595 5595 5595 5595 5595 5595 5594 5593 5593 5592 5591 5590 5589
5592 5592 5591 5591 5591 5590 5589 5588 5587 5586 5585 5584 5584 5584 5584 5584 5584 5584 5584 5583 5583 5583 5583 5583 5582 5582 5582 5582 5582 5582 5583 5583 5583 5582 5582 5582 5582 5581 5580 5579 5579 5578 5577
5583 5582 5581 5580 5580 5579 5577 5576 5575 5574 5573 5573 5572 5572 5572 5572 5572 5572 5572 5571 5571 5571 5571 5570 5570 5570 5569 5569 5570 5570 5570 5571 5571 5570 5570 5570 5570 5569 5568 5567 5566 5565 5564
5574 5573 5571 5570 5569 5568 5567 5565 5564 5563 5562 5561 5561 5561 5561 5561 5561 5560 5560 5560 5560 5559 5559 5558 5558 5558 5557 5557 5558 5558 5558 5559 5559 5559 5559 5558 5557 5556 5555 5554 5554 5553 5553
5565 5563 5562 5561 5560 5558 5557 5555 5554 5553 5551 5551 5550 5550 5550 5550 5549 5549 5548 5548 5548 5548 5547 5547 5547 5547 5546 5546 5546 5546 5547 5547 5547 5547 5547 5546 5545 5545 5544 5543 5542 5541 5540
5555 5554 5553 5552 5550 5549 5547 5545 5544 5543 5542 5541 5540 5540 5539 5539 5539 5538 5538 5537 5537 5537 5536 5536 5536 5536 5535 5535 5535 5535 5536 5536 5536 5536 5536 5535 5533 5532 5532 5531 5530 5530 5529
5547 5546 5544 5543 5541 5539 5538 5536 5535 5534 5533 5532 5531 5530 5530 5530 5529 5528 5528 5527 5527 5526 5526 5525 5525 5525 5525 5525 5525 5525 5525 5525 5525 5525 5524 5523 5522 5521 5520 5520 5519 5519 5519
5538 5537 5535 5534 5532 5531 5529 5528 5526 5525 5524 5523 5522 5521 5521 5521 5520 5519 5518 5518 5518 5517 5517 5516 5515 5515 5515 5515 5515 5515 5515 5515 5515 5514 5514 5513 5512 5511 5510 5509 5509 5508 5508
5530 5528 5527 5525 5524 5522 5521 5519 5518 5517 5516 5514 5514 5513 5512 5512 5511 5511 5510 5509 5508 5508 5508 5507 5506 5506 5506 5505 5505 5505 5505 5505 5504 5504 5503 5503 5502 5502 5501 5500 5499 5499 5499
5521 5520 5518 5517 5515 5514 5512 5511 5510 5508 5507 5506 5505 5505 5504 5503 5503 5502 5501 5500 5500 5499 5499 5498 5498 5497 5497 5497 5496 5496 5496 5495 5495 5494 5494 5494 5494 5493 5493 5492 5491 5490 5490
5513 5511 5510 5509 5507 5506 5504 5503 5501 5500 5499 5498 5497 5497 5496 5495 5494 5494 5493 5492 5491 5490 5490 5490 5489 5489 5489 5488 5488 5487 5487 5486 5486 5486 5486 5486 5485 5485 5485 5484 5483 5483 5482
5505 5504 5502 5501 5499 5498 5496 5495 5493 5492 5491 5490 5489 5489 5488 5487 5487 5486 5485 5484 5483 5482 5482 5481 5481 5481 5481 5481 5480 5479 5479 5478 5478 5478 5478 5478 5477 5477 5477 5477 5476 5475 5474
5498 5496 5495 5493 5491 5489 5488 5486 5485 5484 5483 5482 5482 5481 5480 5480 5479 5477 5476 5476 5476 5475 5474 5474 5473 5473 5473 5473 5473 5472 5471 5471 5471 5471 5471 5470 5470 5470 5470 5469 5469 5468 5467
5490 5488 5487 5485 5483 5482 5480 5479 5477 5476 5475 5474 5473 5473 5472 5472 5471 5470 5469 5469 5468 5468 5467 5467 5466 5466 5466 5466 5465 5465 5464 5464 5464 5464 5464 5464 5463 5463 5463 5462 5461 5460 5459
5482 5480 5479 5477 5476 5474 5473 5471 5470 5469 5467 5467 5466 5465 5465 5464 5463 5462 5462 5462 5461 5461 5460 5460 5460 5459 5459 5459 5459 5458 5458 5458 5458 5458 5458 5457 5457 5456 5456 5455 5454 5453 5452
5474 5473 5471 5469 5468 5467 5465 5464 5462 5461 5461 5460 5459 5458 5458 5457 5456 5456 5455 5455 5455 5454 5454 5453 5453 5453 5453 5452 5452 5452 5452 5452 5452 5452 5452 5451 5451 5450 5449 5448 5447 5446 5445
5467 5465 5464 5462 5461 5460 5458 5457 5456 5455 5454 5453 5453 5452 5451 5450 5450 5449 5449 5449 5449 5448 5448 5447 5447 5447 5447 5447 5447 5446 5446 5446 5446 5446 5446 5445 5445 5444 5443 5442 5441 5441 5440
5460 5458 5457 5456 5454 5453 5452 5451 5450 5449 5448 5447 5447 5446 5445 5444 5444 5444 5443 5443 5443 5442 5442 5442 5441 5441 5441 5441 5441 5441 5441 5441 5441 5440 5440 5439 5439 5438 5438 5437 5437 5436 5436
5453 5452 5451 5449 5448 5447 5446 5445 5444 5443 5442 5442 5441 5440 5439 5439 5439 5438 5438 5437 5437 5437 5436 5436 5436 5436 5436 5436 5436 5436 5436 5436 5435 5435 5435 5434 5434 5434 5434 5433 5433 5433 5432
5446 5445 5444 5443 5442 5441 5440 5440 5439 5438 5437 5436 5436 5435 5434 5434 5433 5433 5433 5432 5432 5432 5432 5432 5432 5432 5432 5432 5432 5432 5432 5431 5431 5431 5430 5430 5430 5430 5430 5430 5430 5430 5429
5439 5439 5438 5438 5437 5436 5435 5434 5434 5433 5432 5432 5431 5430 5429 5429 5428 5428 5428 5428 5427 5427 5427 5428 5428 5428 5428 5428 5428 5428 5428 5428 5427 5427 5427 5427 5427 5427 5427 5427 5427 5427 5427
5433 5433 5433 5432 5432 5431 5431 5430 5429 5429 5428 5427 5426 5426 5425 5425 5424 5424 5424 5423 5423 5423 5424 5424 5424 5424 5424 5424 5424 5424 5424 5424 5424 5424 5424 5424 5424 5424 5424 5424 5424 5424 5425
5427 5427 5427 5427 5427 5427 5426 5426 5425 5424 5424 5423 5422 5422 5421 5421 5421 5420 5420 5420 5420 5420 5420 5421 5421 5421 5421 5421 5421 5421 5421 5421 5421 5421 5421 5421 5421 5422 5422 5422 5422 5422 5423
5422 5422 5423 5423 5423 5423 5422 5422 5421 5421 5420 5420 5419 5419 5418 5418 5418 5417 5417 5417 5417 5417 5417 5417 5417 5418 5418 5418 5418 5418 5418 5418 5418 5418 5418 5419 5419 5420 5420 5420 5421 5421 5421